Time,TemperatureF,DewpointF,PressureIn,WindDirection,WindDirectionDegrees,WindSpeedMPH,WindSpeedGustMPH,Humidity,HourlyPrecipIn,Conditions,Clouds,dailyrainin,SoftwareType,DateUTC
2013-02-08 00:10:00,39.8,38.0,30.02,North,10,7.0,8.0,94,0.01,,,0.18,weatherlink.com 1.10,2013-02-08 05:10:00,
2013-02-08 00:25:00,40.0,38.0,30.02,NNE,23,7.0,9.0,93,0.00,,,0.18,weatherlink.com 1.10,2013-02-08 05:25:00,
2013-02-08 00:40:00,40.1,38.0,30.01,ESE,122,2.0,9.0,93,0.00,,,0.18,weatherlink.com 1.10,2013-02-08 05:40:00,
2013-02-08 00:55:00,40.0,38.0,30.00,NNE,26,1.0,6.0,93,0.01,,,0.01,weatherlink.com 1.10,2013-02-08 05:55:00,
2013-02-08 01:11:00,40.0,38.0,30.00,North,4,1.0,13.0,93,0.01,,,0.01,weatherlink.com 1.10,2013-02-08 06:11:00,
2013-02-08 01:26:00,40.1,38.0,29.99,ENE,58,1.0,11.0,93,0.01,,,0.01,weatherlink.com 1.10,2013-02-08 06:26:00,
2013-02-08 01:41:00,40.0,38.0,29.98,NE,35,2.0,7.0,93,0.01,,,0.01,weatherlink.com 1.10,2013-02-08 06:41:00,
2013-02-08 01:56:00,40.2,38.0,29.97,NNE,33,4.0,11.0,93,0.00,,,0.01,weatherlink.com 1.10,2013-02-08 06:56:00,
2013-02-08 02:11:00,40.3,39.0,29.96,NNE,25,5.0,7.0,93,0.00,,,0.01,weatherlink.com 1.10,2013-02-08 07:11:00,
2013-02-08 02:26:00,40.6,39.0,29.96,ENE,70,4.0,9.0,93,0.01,,,0.02,weatherlink.com 1.10,2013-02-08 07:26:00,
2013-02-08 02:41:00,40.9,39.0,29.96,ENE,59,2.0,8.0,92,0.01,,,0.02,weatherlink.com 1.10,2013-02-08 07:41:00,
2013-02-08 02:56:00,41.0,39.0,29.97,North,4,3.0,6.0,92,0.01,,,0.02,weatherlink.com 1.10,2013-02-08 07:56:00,
2013-02-08 03:11:00,41.2,39.0,29.96,NNE,33,1.0,9.0,92,0.01,,,0.02,weatherlink.com 1.10,2013-02-08 08:11:00,
2013-02-08 03:26:00,41.2,39.0,29.95,SE,132,0.0,5.0,92,0.00,,,0.02,weatherlink.com 1.10,2013-02-08 08:26:00,
2013-02-08 03:41:00,41.1,39.0,29.95,NE,56,0.0,6.0,93,0.00,,,0.02,weatherlink.com 1.10,2013-02-08 08:41:00,
2013-02-08 03:56:00,41.1,39.0,29.95,ENE,72,0.0,4.0,93,0.00,,,0.02,weatherlink.com 1.10,2013-02-08 08:56:00,
2013-02-08 04:11:00,41.0,39.0,29.96,NE,42,0.0,6.0,92,0.00,,,0.02,weatherlink.com 1.10,2013-02-08 09:11:00,
2013-02-08 04:26:00,40.8,39.0,29.95,ENE,74,2.0,5.0,93,0.01,,,0.03,weatherlink.com 1.10,2013-02-08 09:26:00,
2013-02-08 04:41:00,40.7,39.0,29.95,NE,52,1.0,6.0,93,0.01,,,0.03,weatherlink.com 1.10,2013-02-08 09:41:00,
2013-02-08 04:56:00,40.7,39.0,29.95,NE,47,1.0,4.0,93,0.01,,,0.03,weatherlink.com 1.10,2013-02-08 09:56:00,
2013-02-08 05:11:00,40.5,39.0,29.95,NE,39,1.0,4.0,94,0.01,,,0.03,weatherlink.com 1.10,2013-02-08 10:11:00,
2013-02-08 05:26:00,40.6,39.0,29.95,ENE,68,0.0,3.0,94,0.00,,,0.03,weatherlink.com 1.10,2013-02-08 10:26:00,
2013-02-08 05:41:00,40.6,39.0,29.95,ENE,68,0.0,1.0,94,0.00,,,0.03,weatherlink.com 1.10,2013-02-08 10:41:00,
2013-02-08 05:56:00,40.5,39.0,29.95,ENE,68,0.0,3.0,94,0.00,,,0.03,weatherlink.com 1.10,2013-02-08 10:56:00,
2013-02-08 06:12:00,40.3,39.0,29.94,ENE,68,0.0,0.0,94,0.00,,,0.03,weatherlink.com 1.10,2013-02-08 11:12:00,
2013-02-08 06:26:00,40.3,39.0,29.94,ENE,68,1.0,1.0,94,0.00,,,0.03,weatherlink.com 1.10,2013-02-08 11:26:00,
2013-02-08 06:41:00,40.3,39.0,29.94,ENE,68,0.0,2.0,94,0.01,,,0.04,weatherlink.com 1.10,2013-02-08 11:41:00,
2013-02-08 06:56:00,40.1,39.0,29.94,ENE,68,1.0,2.0,94,0.01,,,0.04,weatherlink.com 1.10,2013-02-08 11:56:00,
2013-02-08 07:11:00,39.7,38.0,29.95,ENE,68,0.0,0.0,94,0.01,,,0.04,weatherlink.com 1.10,2013-02-08 12:11:00,
2013-02-08 07:26:00,39.3,38.0,29.95,ENE,68,0.0,0.0,94,0.01,,,0.04,weatherlink.com 1.10,2013-02-08 12:26:00,
2013-02-08 07:41:00,39.2,38.0,29.95,ENE,67,0.0,0.0,95,0.00,,,0.04,weatherlink.com 1.10,2013-02-08 12:41:00,
2013-02-08 07:56:00,39.5,39.0,29.95,ENE,67,0.0,1.0,96,0.00,,,0.04,weatherlink.com 1.10,2013-02-08 12:56:00,
2013-02-08 08:11:00,40.1,39.0,29.95,NNE,33,0.0,3.0,95,0.00,,,0.04,weatherlink.com 1.10,2013-02-08 13:11:00,
2013-02-08 08:26:00,41.1,40.0,29.96,WNW,284,4.0,6.0,95,0.00,,,0.04,weatherlink.com 1.10,2013-02-08 13:26:00,
2013-02-08 08:41:00,41.7,40.0,29.96,West,265,2.0,6.0,94,0.00,,,0.04,weatherlink.com 1.10,2013-02-08 13:41:00,
2013-02-08 08:56:00,42.8,41.0,29.96,WNW,293,2.0,4.0,92,0.00,,,0.04,weatherlink.com 1.10,2013-02-08 13:56:00,
2013-02-08 09:11:00,43.8,42.0,29.96,NW,306,1.0,3.0,92,0.00,,,0.04,weatherlink.com 1.10,2013-02-08 14:11:00,
2013-02-08 09:26:00,44.0,42.0,29.95,SW,216,0.0,1.0,91,0.01,,,0.05,weatherlink.com 1.10,2013-02-08 14:26:00,
2013-02-08 09:41:00,44.4,42.0,29.95,SW,224,3.0,4.0,90,0.01,,,0.05,weatherlink.com 1.10,2013-02-08 14:41:00,
2013-02-08 09:56:00,44.7,42.0,29.96,SW,224,2.0,4.0,91,0.01,,,0.05,weatherlink.com 1.10,2013-02-08 14:56:00,
2013-02-08 10:12:00,45.1,43.0,29.96,WNW,283,1.0,5.0,91,0.01,,,0.05,weatherlink.com 1.10,2013-02-08 15:12:00,
2013-02-08 10:27:00,45.6,43.0,29.95,SW,226,3.0,5.0,90,0.00,,,0.05,weatherlink.com 1.10,2013-02-08 15:27:00,
2013-02-08 10:42:00,46.4,44.0,29.96,SW,222,3.0,6.0,90,0.00,,,0.05,weatherlink.com 1.10,2013-02-08 15:42:00,
2013-02-08 10:57:00,48.3,45.0,29.95,South,188,5.0,7.0,87,0.00,,,0.05,weatherlink.com 1.10,2013-02-08 15:57:00,
2013-02-08 11:12:00,49.3,45.0,29.95,SW,222,6.0,7.0,85,0.01,,,0.06,weatherlink.com 1.10,2013-02-08 16:12:00,
2013-02-08 11:28:00,50.5,46.0,29.95,SW,216,6.0,9.0,85,0.01,,,0.06,weatherlink.com 1.10,2013-02-08 16:28:00,
2013-02-08 11:43:00,51.4,46.0,29.94,SSW,206,6.0,9.0,83,0.01,,,0.06,weatherlink.com 1.10,2013-02-08 16:43:00,
2013-02-08 11:58:00,53.4,47.0,29.93,West,280,8.0,15.0,79,0.01,,,0.06,weatherlink.com 1.10,2013-02-08 16:58:00,
2013-02-08 12:13:00,55.7,48.0,29.92,West,280,4.0,12.0,75,0.00,,,0.06,weatherlink.com 1.10,2013-02-08 17:13:00,
2013-02-08 12:28:00,56.7,49.0,29.92,WNW,301,3.0,15.0,74,0.01,,,0.07,weatherlink.com 1.10,2013-02-08 17:28:00,
2013-02-08 12:43:00,57.7,46.0,29.91,WNW,292,8.0,15.0,66,0.01,,,0.07,weatherlink.com 1.10,2013-02-08 17:43:00,
2013-02-08 12:58:00,57.5,45.0,29.91,West,276,17.0,21.0,63,0.02,,,0.08,weatherlink.com 1.10,2013-02-08 17:58:00,
2013-02-08 13:13:00,57.3,45.0,29.90,NW,305,11.0,22.0,63,0.02,,,0.08,weatherlink.com 1.10,2013-02-08 18:13:00,
2013-02-08 13:28:00,56.4,44.0,29.90,WNW,295,7.0,22.0,64,0.01,,,0.08,weatherlink.com 1.10,2013-02-08 18:28:00,
2013-02-08 13:43:00,56.0,44.0,29.90,NW,316,7.0,16.0,65,0.02,,,0.09,weatherlink.com 1.10,2013-02-08 18:43:00,
2013-02-08 13:58:00,55.7,44.0,29.89,WNW,296,7.0,18.0,65,0.01,,,0.09,weatherlink.com 1.10,2013-02-08 18:58:00,
2013-02-08 14:13:00,55.5,44.0,29.90,WNW,286,9.0,18.0,65,0.01,,,0.09,weatherlink.com 1.10,2013-02-08 19:13:00,
2013-02-08 14:28:00,55.5,43.0,29.89,WNW,289,9.0,19.0,63,0.02,,,0.10,weatherlink.com 1.10,2013-02-08 19:28:00,
2013-02-08 14:43:00,55.4,41.0,29.90,WNW,294,9.0,19.0,59,0.01,,,0.10,weatherlink.com 1.10,2013-02-08 19:43:00,
2013-02-08 14:58:00,55.7,41.0,29.91,WSW,256,5.0,11.0,58,0.02,,,0.11,weatherlink.com 1.10,2013-02-08 19:58:00,
2013-02-08 15:13:00,56.2,39.0,29.90,West,276,8.0,13.0,52,0.01,,,0.11,weatherlink.com 1.10,2013-02-08 20:13:00,
2013-02-08 15:28:00,56.4,38.0,29.91,WNW,285,7.0,12.0,50,0.01,,,0.11,weatherlink.com 1.10,2013-02-08 20:28:00,
2013-02-08 15:43:00,58.3,37.0,29.91,NW,323,7.0,12.0,46,0.02,,,0.12,weatherlink.com 1.10,2013-02-08 20:43:00,
2013-02-08 15:58:00,58.7,36.0,29.91,WNW,296,6.0,11.0,43,0.01,,,0.12,weatherlink.com 1.10,2013-02-08 20:58:00,
2013-02-08 16:13:00,58.6,36.0,29.91,NW,317,9.0,13.0,43,0.02,,,0.13,weatherlink.com 1.10,2013-02-08 21:13:00,
2013-02-08 16:28:00,57.7,35.0,29.92,WNW,299,7.0,13.0,43,0.02,,,0.13,weatherlink.com 1.10,2013-02-08 21:28:00,
2013-02-08 16:43:00,57.0,34.0,29.93,NW,320,2.0,17.0,42,0.01,,,0.13,weatherlink.com 1.10,2013-02-08 21:43:00,
2013-02-08 16:58:00,56.4,33.0,29.93,NW,313,6.0,15.0,42,0.02,,,0.14,weatherlink.com 1.10,2013-02-08 21:58:00,
2013-02-08 17:13:00,55.9,32.0,29.94,NNW,328,5.0,14.0,41,0.01,,,0.14,weatherlink.com 1.10,2013-02-08 22:13:00,
2013-02-08 17:28:00,54.9,32.0,29.95,WNW,285,7.0,15.0,42,0.01,,,0.14,weatherlink.com 1.10,2013-02-08 22:28:00,
2013-02-08 17:43:00,54.0,32.0,29.95,West,280,8.0,14.0,43,0.02,,,0.15,weatherlink.com 1.10,2013-02-08 22:43:00,
2013-02-08 17:58:00,52.3,31.0,29.96,NW,322,7.0,12.0,44,0.01,,,0.15,weatherlink.com 1.10,2013-02-08 22:58:00,
2013-02-08 18:13:00,51.2,30.0,29.96,NW,307,2.0,9.0,45,0.01,,,0.15,weatherlink.com 1.10,2013-02-08 23:13:00,
2013-02-08 18:28:00,50.5,30.0,29.97,ENE,70,4.0,7.0,46,0.02,,,0.16,weatherlink.com 1.10,2013-02-08 23:28:00,
2013-02-08 18:43:00,50.0,31.0,29.98,East,79,0.0,2.0,48,0.01,,,0.16,weatherlink.com 1.10,2013-02-08 23:43:00,
2013-02-08 18:58:00,49.7,30.0,29.99,SSW,198,0.0,2.0,47,0.01,,,0.16,weatherlink.com 1.10,2013-02-08 23:58:00,
2013-02-08 19:13:00,49.5,31.0,30.00,NW,322,2.0,4.0,49,0.01,,,0.16,weatherlink.com 1.10,2013-02-09 00:13:00,
2013-02-08 19:28:00,48.5,30.0,30.00,NW,322,0.0,2.0,49,0.01,,,0.17,weatherlink.com 1.10,2013-02-09 00:28:00,
2013-02-08 19:43:00,47.7,31.0,30.02,NNE,23,0.0,1.0,52,0.01,,,0.17,weatherlink.com 1.10,2013-02-09 00:43:00,
2013-02-08 19:58:00,46.2,31.0,30.02,NNE,23,0.0,1.0,55,0.01,,,0.17,weatherlink.com 1.10,2013-02-09 00:58:00,
2013-02-08 20:13:00,45.1,30.0,30.03,NE,35,2.0,4.0,57,0.01,,,0.17,weatherlink.com 1.10,2013-02-09 01:13:00,
2013-02-08 20:28:00,44.8,31.0,30.04,NE,51,0.0,2.0,59,0.01,,,0.18,weatherlink.com 1.10,2013-02-09 01:28:00,
2013-02-08 20:43:00,43.7,30.0,30.05,NE,43,0.0,2.0,60,0.01,,,0.18,weatherlink.com 1.10,2013-02-09 01:43:00,
2013-02-08 20:58:00,43.6,30.0,30.05,ENE,77,2.0,3.0,60,0.01,,,0.18,weatherlink.com 1.10,2013-02-09 01:58:00,
2013-02-08 21:13:00,43.3,30.0,30.06,NE,42,1.0,4.0,61,0.01,,,0.18,weatherlink.com 1.10,2013-02-09 02:13:00,
2013-02-08 21:28:00,42.7,30.0,30.07,NE,43,0.0,3.0,62,0.00,,,0.18,weatherlink.com 1.10,2013-02-09 02:28:00,
2013-02-08 21:44:00,42.0,31.0,30.09,NE,37,4.0,4.0,64,0.01,,,0.19,weatherlink.com 1.10,2013-02-09 02:44:00,
2013-02-08 21:59:00,41.6,30.0,30.09,NNE,31,4.0,4.0,64,0.01,,,0.19,weatherlink.com 1.10,2013-02-09 02:59:00,
2013-02-08 22:14:00,41.5,30.0,30.09,NNE,20,0.0,6.0,64,0.01,,,0.19,weatherlink.com 1.10,2013-02-09 03:14:00,
2013-02-08 22:29:00,41.0,30.0,30.10,NE,37,2.0,3.0,64,0.01,,,0.19,weatherlink.com 1.10,2013-02-09 03:29:00,
2013-02-08 22:44:00,40.7,29.0,30.10,NE,37,1.0,3.0,64,0.00,,,0.19,weatherlink.com 1.10,2013-02-09 03:44:00,
2013-02-08 22:59:00,40.1,29.0,30.10,NE,56,0.0,5.0,65,0.01,,,0.20,weatherlink.com 1.10,2013-02-09 03:59:00,
2013-02-08 23:14:00,39.6,29.0,30.11,ENE,70,0.0,4.0,66,0.01,,,0.20,weatherlink.com 1.10,2013-02-09 04:14:00,
2013-02-08 23:29:00,38.4,29.0,30.12,ENE,70,0.0,1.0,70,0.01,,,0.20,weatherlink.com 1.10,2013-02-09 04:29:00,
2013-02-08 23:44:00,37.5,29.0,30.12,ENE,70,0.0,1.0,71,0.01,,,0.20,weatherlink.com 1.10,2013-02-09 04:44:00,
2013-02-08 23:59:00,38.2,29.0,30.12,ENE,70,0.0,2.0,69,0.00,,,0.20,weatherlink.com 1.10,2013-02-09 04:59:00,